GSAT0212 (GALILEO 16) (41860 NORAD) Tracking and Keplerian Element Data

This shows tracking and keplerian element data for the satellite.

Feedback or suggestion? Click here.




ElementValue
Catalog41860
NameGSAT0212 (GALILEO 16)
Epoch Orbit1798
Epoch Day280.89121962
Epoch Year2019
RAAN168.8864
Inclination54.6109
Eccentricity0.0003305
Argument of Perigee337.7927
Mean Anonmoly22.2613
Mean Motion1.70473074
Decay Rate-1.6E-07
L11 41860U 16069B 19280.89121962 -.00000016 00000-0 00000+0 0 9996
L22 41860 54.6109 168.8864 0003305 337.7927 22.2613 1.70473074 17980

Live tracking and technical data element details for GSAT0212 (GALILEO 16) (NORAD 41860). GSAT0212 (GALILEO 16) can be tracked NOW for your location showing map with azimuth and elevation plus other details from your city location.

Track the satellite on the map from your city or location and see movement details for azimuth, elevation, latitude, longitude, range, height, and movement on the map or in text.







IsCatalogInMostPopularTable: catalog: 41860, numindb: 314
Update: records affected: 1



GetName: 41860 GSAT0212 (GALILEO 16)

Hit Count: updated at: Mon, 14 Oct 2019 00:41:14 GMT